User: anonymous   Login
Location: Strawberry
(45.6646°N, 111.9596°W)
Time: 07:59:20
(UTC+00:00)
Language:

DX 1 - Orbit

View from above orbital plane
View from above orbital plane
View from above satellite
View from above satellite

Ground track
Ground track

The orbit data is extracted from the following two-line orbital elements,

1 40071U 14037C   22330.71660625  .00000728  00000-0  98739-4 0  9997
2 40071  98.3834 207.3227 0008749 148.2756 211.8992 14.82154429453377
Epoch (UTC): 26 November 2022 17:11:54
Eccentricity: 0.0008749
inclination: 98.3834°
perigee height: 616 km
apogee height: 628 km
right ascension of ascending node: 207.3227°
argument of perigee: 148.2756°
revolutions per day: 14.82154429
mean anomaly at epoch: 211.8992°
orbit number at epoch: 45337

The dashed part of the orbit path shows where the satellite is in the earth's shadow,  

DLR